Year,Month,Day,Hour,Minute,Value (Times are PST for temperature in C)
2011,05,23,00,00,9.90
2011,05,23,00,01,9.90
2011,05,23,00,02,9.90
2011,05,23,00,03,9.90
2011,05,23,00,04,9.90
2011,05,23,00,05,9.90
2011,05,23,00,06,9.80
2011,05,23,00,07,9.80
2011,05,23,00,08,9.80
2011,05,23,00,09,9.70
2011,05,23,00,10,9.70
2011,05,23,00,11,9.70
2011,05,23,00,12,9.70
2011,05,23,00,13,9.70
2011,05,23,00,14,9.70
2011,05,23,00,15,9.70
2011,05,23,00,16,9.70
2011,05,23,00,17,9.60
2011,05,23,00,18,9.60
2011,05,23,00,19,9.60
2011,05,23,00,20,9.60
2011,05,23,00,21,9.50
2011,05,23,00,22,9.50
2011,05,23,00,23,9.50
2011,05,23,00,24,9.50
2011,05,23,00,25,9.50
2011,05,23,00,26,9.50
2011,05,23,00,27,9.40
2011,05,23,00,28,9.40
2011,05,23,00,29,9.40
2011,05,23,00,30,9.40
2011,05,23,00,31,9.40
2011,05,23,00,32,9.40
2011,05,23,00,33,9.40
2011,05,23,00,34,9.40
2011,05,23,00,35,9.30
2011,05,23,00,36,9.30
2011,05,23,00,37,9.30
2011,05,23,00,38,9.30
2011,05,23,00,39,9.30
2011,05,23,00,40,9.30
2011,05,23,00,41,9.30
2011,05,23,00,42,9.20
2011,05,23,00,43,9.20
2011,05,23,00,44,9.20
2011,05,23,00,45,9.20
2011,05,23,00,46,9.20
2011,05,23,00,47,9.20
2011,05,23,00,48,9.20
2011,05,23,00,49,9.20
2011,05,23,00,50,9.20
2011,05,23,00,51,9.20
2011,05,23,00,52,9.20
2011,05,23,00,53,9.20
2011,05,23,00,54,9.20
2011,05,23,00,55,9.20
2011,05,23,00,56,9.20
2011,05,23,00,57,9.20
2011,05,23,00,58,9.10
2011,05,23,00,59,9.10
2011,05,23,01,00,9.10
2011,05,23,01,01,9.10
2011,05,23,01,02,9.10
2011,05,23,01,03,9.10
2011,05,23,01,04,9.10
2011,05,23,01,05,9.10
2011,05,23,01,06,9.10
2011,05,23,01,07,9.10
2011,05,23,01,08,9.10
2011,05,23,01,09,9.10
2011,05,23,01,10,9.10
2011,05,23,01,11,9.10
2011,05,23,01,12,9.10
2011,05,23,01,13,9.10
2011,05,23,01,14,9.10
2011,05,23,01,15,9.00
2011,05,23,01,16,9.00
2011,05,23,01,17,9.00
2011,05,23,01,18,9.00
2011,05,23,01,19,9.00
2011,05,23,01,20,9.00
2011,05,23,01,21,9.00
2011,05,23,01,22,9.00
2011,05,23,01,23,9.00
2011,05,23,01,24,9.00
2011,05,23,01,25,9.00
2011,05,23,01,26,9.00
2011,05,23,01,27,9.00
2011,05,23,01,28,9.00
2011,05,23,01,29,9.00
2011,05,23,01,30,9.00
2011,05,23,01,31,9.00
2011,05,23,01,32,9.00
2011,05,23,01,33,9.00
2011,05,23,01,34,9.00
2011,05,23,01,35,9.00
2011,05,23,01,36,9.00
2011,05,23,01,37,9.00
2011,05,23,01,38,9.00
2011,05,23,01,39,9.00
2011,05,23,01,40,8.90
2011,05,23,01,41,8.90
2011,05,23,01,42,8.90
2011,05,23,01,43,8.90
2011,05,23,01,44,8.90
2011,05,23,01,45,8.90
2011,05,23,01,46,8.90
2011,05,23,01,47,8.90
2011,05,23,01,48,8.90
2011,05,23,01,49,8.90
2011,05,23,01,50,8.90
2011,05,23,01,51,8.90
2011,05,23,01,52,8.90
2011,05,23,01,53,8.90
2011,05,23,01,54,8.90
2011,05,23,01,55,8.90
2011,05,23,01,56,8.90
2011,05,23,01,57,8.90
2011,05,23,01,58,8.90
2011,05,23,01,59,8.90
2011,05,23,02,00,8.90
2011,05,23,02,01,8.90
2011,05,23,02,02,8.90
2011,05,23,02,03,8.90
2011,05,23,02,04,8.90
2011,05,23,02,05,8.90
2011,05,23,02,06,8.90
2011,05,23,02,07,8.90
2011,05,23,02,08,8.90
2011,05,23,02,09,8.90
2011,05,23,02,10,8.90
2011,05,23,02,11,8.90
2011,05,23,02,12,8.90
2011,05,23,02,13,8.90
2011,05,23,02,14,8.90
2011,05,23,02,15,8.90
2011,05,23,02,16,8.90
2011,05,23,02,17,8.90
2011,05,23,02,18,8.90
2011,05,23,02,19,8.80
2011,05,23,02,20,8.80
2011,05,23,02,21,8.80
2011,05,23,02,22,8.80
2011,05,23,02,23,8.80
2011,05,23,02,24,8.80
2011,05,23,02,25,8.80
2011,05,23,02,26,8.80
2011,05,23,02,27,8.80
2011,05,23,02,28,8.80
2011,05,23,02,29,8.70
2011,05,23,02,30,8.70
2011,05,23,02,31,8.70
2011,05,23,02,32,8.70
2011,05,23,02,33,8.70
2011,05,23,02,34,8.70
2011,05,23,02,35,8.70
2011,05,23,02,36,8.70
2011,05,23,02,37,8.70
2011,05,23,02,38,8.70
2011,05,23,02,39,8.70
2011,05,23,02,40,8.70
2011,05,23,02,41,8.70
2011,05,23,02,42,8.70
2011,05,23,02,43,8.70
2011,05,23,02,44,8.70
2011,05,23,02,45,8.70
2011,05,23,02,46,8.70
2011,05,23,02,47,8.70
2011,05,23,02,48,8.70
2011,05,23,02,49,8.60
2011,05,23,02,50,8.60
2011,05,23,02,51,8.60
2011,05,23,02,52,8.60
2011,05,23,02,53,8.60
2011,05,23,02,54,8.50
2011,05,23,02,55,8.50
2011,05,23,02,56,8.50
2011,05,23,02,57,8.50
2011,05,23,02,58,8.50
2011,05,23,02,59,8.50
2011,05,23,03,00,8.50
2011,05,23,03,01,8.50
2011,05,23,03,02,8.40
2011,05,23,03,03,8.40
2011,05,23,03,04,8.40
2011,05,23,03,05,8.40
2011,05,23,03,06,8.40
2011,05,23,03,07,8.40
2011,05,23,03,08,8.40
2011,05,23,03,09,8.30
2011,05,23,03,10,8.30
2011,05,23,03,11,8.30
2011,05,23,03,12,8.30
2011,05,23,03,13,8.30
2011,05,23,03,14,8.30
2011,05,23,03,15,8.30
2011,05,23,03,16,8.30
2011,05,23,03,17,8.20
2011,05,23,03,18,8.20
2011,05,23,03,19,8.20
2011,05,23,03,20,8.20
2011,05,23,03,21,8.20
2011,05,23,03,22,8.20
2011,05,23,03,23,8.20
2011,05,23,03,24,8.20
2011,05,23,03,25,8.20
2011,05,23,03,26,8.20
2011,05,23,03,27,8.20
2011,05,23,03,28,8.20
2011,05,23,03,29,8.20
2011,05,23,03,30,8.20
2011,05,23,03,31,8.20
2011,05,23,03,32,8.20
2011,05,23,03,33,8.10
2011,05,23,03,34,8.10
2011,05,23,03,35,8.10
2011,05,23,03,36,8.10
2011,05,23,03,37,8.10
2011,05,23,03,38,8.10
2011,05,23,03,39,8.10
2011,05,23,03,40,8.10
2011,05,23,03,41,8.10
2011,05,23,03,42,8.00
2011,05,23,03,43,8.00
2011,05,23,03,44,8.00
2011,05,23,03,45,8.00
2011,05,23,03,46,8.00
2011,05,23,03,47,8.00
2011,05,23,03,48,8.00
2011,05,23,03,49,7.90
2011,05,23,03,50,7.90
2011,05,23,03,51,7.90
2011,05,23,03,52,7.90
2011,05,23,03,53,7.90
2011,05,23,03,54,7.90
2011,05,23,03,55,7.90
2011,05,23,03,56,7.90
2011,05,23,03,57,7.90
2011,05,23,03,58,7.90
2011,05,23,03,59,7.90
2011,05,23,04,00,7.90
2011,05,23,04,01,7.90
2011,05,23,04,02,7.90
2011,05,23,04,03,7.80
2011,05,23,04,04,7.80
2011,05,23,04,05,7.80
2011,05,23,04,06,7.80
2011,05,23,04,07,7.80
2011,05,23,04,08,7.80
2011,05,23,04,09,7.80
2011,05,23,04,10,7.80
2011,05,23,04,11,7.80
2011,05,23,04,12,7.80
2011,05,23,04,13,7.80
2011,05,23,04,14,7.80
2011,05,23,04,15,7.80
2011,05,23,04,16,7.80
2011,05,23,04,17,7.80
2011,05,23,04,18,7.80
2011,05,23,04,19,7.80
2011,05,23,04,20,7.80
2011,05,23,04,21,7.80
2011,05,23,04,22,7.80
2011,05,23,04,23,7.80
2011,05,23,04,24,7.80
2011,05,23,04,25,7.80
2011,05,23,04,26,7.80
2011,05,23,04,27,7.80
2011,05,23,04,28,7.80
2011,05,23,04,29,7.80
2011,05,23,04,30,7.80
2011,05,23,04,31,7.80
2011,05,23,04,32,7.80
2011,05,23,04,33,7.80
2011,05,23,04,34,7.80
2011,05,23,04,35,7.80
2011,05,23,04,36,7.80
2011,05,23,04,37,7.80
2011,05,23,04,38,7.80
2011,05,23,04,39,7.80
2011,05,23,04,40,7.80
2011,05,23,04,41,7.80
2011,05,23,04,42,7.80
2011,05,23,04,43,7.80
2011,05,23,04,44,7.80
2011,05,23,04,45,7.80
2011,05,23,04,46,7.80
2011,05,23,04,47,7.80
2011,05,23,04,48,7.80
2011,05,23,04,49,7.80
2011,05,23,04,50,7.80
2011,05,23,04,51,7.80
2011,05,23,04,52,7.80
2011,05,23,04,53,7.80
2011,05,23,04,54,7.80
2011,05,23,04,55,7.80
2011,05,23,04,56,7.80
2011,05,23,04,57,7.80
2011,05,23,04,58,7.80
2011,05,23,04,59,7.80
2011,05,23,05,00,7.70
2011,05,23,05,01,7.70
2011,05,23,05,02,7.70
2011,05,23,05,03,7.70
2011,05,23,05,04,7.60
2011,05,23,05,05,7.60
2011,05,23,05,06,7.50
2011,05,23,05,07,7.50
2011,05,23,05,08,7.50
2011,05,23,05,09,7.40
2011,05,23,05,10,7.40
2011,05,23,05,11,7.30
2011,05,23,05,12,7.30
2011,05,23,05,13,7.30
2011,05,23,05,14,7.30
2011,05,23,05,15,7.30
2011,05,23,05,16,7.30
2011,05,23,05,17,7.30
2011,05,23,05,18,7.30
2011,05,23,05,19,7.30
2011,05,23,05,20,7.30
2011,05,23,05,21,7.20
2011,05,23,05,22,7.20
2011,05,23,05,23,7.20
2011,05,23,05,24,7.20
2011,05,23,05,25,7.20
2011,05,23,05,26,7.10
2011,05,23,05,27,7.10
2011,05,23,05,28,7.10
2011,05,23,05,29,7.10
2011,05,23,05,30,7.00
2011,05,23,05,31,7.00
2011,05,23,05,32,7.00
2011,05,23,05,33,7.00
2011,05,23,05,34,7.00
2011,05,23,05,35,7.00
2011,05,23,05,36,6.90
2011,05,23,05,37,6.90
2011,05,23,05,38,6.90
2011,05,23,05,39,6.90
2011,05,23,05,40,6.90
2011,05,23,05,41,6.90
2011,05,23,05,42,6.80
2011,05,23,05,43,6.80
2011,05,23,05,44,6.80
2011,05,23,05,45,6.90
2011,05,23,05,46,6.90
2011,05,23,05,47,6.90
2011,05,23,05,48,7.00
2011,05,23,05,49,7.00
2011,05,23,05,50,7.00
2011,05,23,05,51,7.00
2011,05,23,05,52,7.00
2011,05,23,05,53,7.00
2011,05,23,05,54,7.10
2011,05,23,05,55,7.10
2011,05,23,05,56,7.20
2011,05,23,05,57,7.20
2011,05,23,05,58,7.20
2011,05,23,05,59,7.30
2011,05,23,06,00,7.30
2011,05,23,06,01,7.30
2011,05,23,06,02,7.30
2011,05,23,06,03,7.30
2011,05,23,06,04,7.30
2011,05,23,06,05,7.30
2011,05,23,06,06,7.30
2011,05,23,06,07,7.30
2011,05,23,06,08,7.30
2011,05,23,06,09,7.30
2011,05,23,06,10,7.30
2011,05,23,06,11,7.30
2011,05,23,06,12,7.30
2011,05,23,06,13,7.30
2011,05,23,06,14,7.40
2011,05,23,06,15,7.40
2011,05,23,06,16,7.50
2011,05,23,06,17,7.50
2011,05,23,06,18,7.50
2011,05,23,06,19,7.60
2011,05,23,06,20,7.60
2011,05,23,06,21,7.70
2011,05,23,06,22,7.70
2011,05,23,06,23,7.80
2011,05,23,06,24,7.80
2011,05,23,06,25,7.80
2011,05,23,06,26,7.80
2011,05,23,06,27,7.90
2011,05,23,06,28,7.90
2011,05,23,06,29,8.00
2011,05,23,06,30,8.00
2011,05,23,06,31,8.10
2011,05,23,06,32,8.10
2011,05,23,06,33,8.20
2011,05,23,06,34,8.20
2011,05,23,06,35,8.20
2011,05,23,06,36,8.30
2011,05,23,06,37,8.30
2011,05,23,06,38,8.40
2011,05,23,06,39,8.40
2011,05,23,06,40,8.50
2011,05,23,06,41,8.60
2011,05,23,06,42,8.60
2011,05,23,06,43,8.70
2011,05,23,06,44,8.70
2011,05,23,06,45,8.70
2011,05,23,06,46,8.70
2011,05,23,06,47,8.70
2011,05,23,06,48,8.70
2011,05,23,06,49,8.70
2011,05,23,06,50,8.70
2011,05,23,06,51,8.70
2011,05,23,06,52,8.70
2011,05,23,06,53,8.70
2011,05,23,06,54,8.70
2011,05,23,06,55,8.70
2011,05,23,06,56,8.70
2011,05,23,06,57,8.70
2011,05,23,06,58,8.70
2011,05,23,06,59,8.70
2011,05,23,07,00,8.70
2011,05,23,07,01,8.70
2011,05,23,07,02,8.80
2011,05,23,07,03,8.80
2011,05,23,07,04,8.80
2011,05,23,07,05,8.80
2011,05,23,07,06,8.80
2011,05,23,07,07,8.80
2011,05,23,07,08,8.80
2011,05,23,07,09,8.80
2011,05,23,07,10,8.90
2011,05,23,07,11,8.90
2011,05,23,07,12,8.90
2011,05,23,07,13,9.00
2011,05,23,07,14,9.00
2011,05,23,07,15,9.00
2011,05,23,07,16,9.00
2011,05,23,07,17,9.00
2011,05,23,07,18,9.10
2011,05,23,07,19,9.10
2011,05,23,07,20,9.20
2011,05,23,07,21,9.20
2011,05,23,07,22,9.20
2011,05,23,07,23,9.20
2011,05,23,07,24,9.20
2011,05,23,07,25,9.20
2011,05,23,07,26,9.20
2011,05,23,07,27,9.20
2011,05,23,07,28,9.30
2011,05,23,07,29,9.30
2011,05,23,07,30,9.30
2011,05,23,07,31,9.40
2011,05,23,07,32,9.40
2011,05,23,07,33,9.40
2011,05,23,07,34,9.50
2011,05,23,07,35,9.50
2011,05,23,07,36,9.50
2011,05,23,07,37,9.60
2011,05,23,07,38,9.70
2011,05,23,07,39,9.70
2011,05,23,07,40,9.70
2011,05,23,07,41,9.70
2011,05,23,07,42,9.80
2011,05,23,07,43,9.90
2011,05,23,07,44,9.90
2011,05,23,07,45,10.00
2011,05,23,07,46,10.10
2011,05,23,07,47,10.20
2011,05,23,07,48,10.20
2011,05,23,07,49,10.30
2011,05,23,07,50,10.40
2011,05,23,07,51,10.40
2011,05,23,07,52,10.60
2011,05,23,07,53,10.60
2011,05,23,07,54,10.70
2011,05,23,07,55,10.70
2011,05,23,07,56,10.70
2011,05,23,07,57,10.70
2011,05,23,07,58,10.90
2011,05,23,07,59,10.90
2011,05,23,08,00,11.10
2011,05,23,08,01,11.20
2011,05,23,08,02,11.30
2011,05,23,08,03,11.40
2011,05,23,08,04,11.60
2011,05,23,08,05,11.60
2011,05,23,08,06,11.60
2011,05,23,08,07,11.50
2011,05,23,08,08,11.40
2011,05,23,08,09,11.30
2011,05,23,08,10,11.20
2011,05,23,08,11,11.20
2011,05,23,08,12,11.30
2011,05,23,08,13,11.50
2011,05,23,08,14,11.60
2011,05,23,08,15,11.70
2011,05,23,08,16,11.80
2011,05,23,08,17,12.00
2011,05,23,08,18,12.00
2011,05,23,08,19,12.20
2011,05,23,08,20,12.30
2011,05,23,08,21,12.40
2011,05,23,08,22,12.40
2011,05,23,08,23,12.40
2011,05,23,08,24,12.30
2011,05,23,08,25,12.30
2011,05,23,08,26,12.30
2011,05,23,08,27,12.30
2011,05,23,08,28,12.30
2011,05,23,08,29,12.40
2011,05,23,08,30,12.40
2011,05,23,08,31,12.50
2011,05,23,08,32,12.50
2011,05,23,08,33,12.60
2011,05,23,08,34,12.60
2011,05,23,08,35,12.60
2011,05,23,08,36,12.60
2011,05,23,08,37,12.60
2011,05,23,08,38,12.60
2011,05,23,08,39,12.70
2011,05,23,08,40,12.70
2011,05,23,08,41,12.70
2011,05,23,08,42,12.80
2011,05,23,08,43,12.80
2011,05,23,08,44,12.80
2011,05,23,08,45,12.90
2011,05,23,08,46,12.90
2011,05,23,08,47,13.00
2011,05,23,08,48,13.00
2011,05,23,08,49,13.00
2011,05,23,08,50,13.00
2011,05,23,08,51,13.00
2011,05,23,08,52,13.10
2011,05,23,08,53,13.10
2011,05,23,08,54,13.10
2011,05,23,08,55,13.10
2011,05,23,08,56,13.10
2011,05,23,08,57,13.00
2011,05,23,08,58,12.90
2011,05,23,08,59,12.90
2011,05,23,09,00,12.90
2011,05,23,09,01,13.00
2011,05,23,09,02,13.10
2011,05,23,09,03,13.20
2011,05,23,09,04,13.10
2011,05,23,09,05,13.10
2011,05,23,09,06,13.10
2011,05,23,09,07,13.10
2011,05,23,09,08,13.00
2011,05,23,09,09,13.00
2011,05,23,09,10,13.00
2011,05,23,09,11,12.90
2011,05,23,09,12,13.00
2011,05,23,09,13,13.00
2011,05,23,09,14,13.10
2011,05,23,09,15,13.30
2011,05,23,09,16,13.30
2011,05,23,09,17,13.40
2011,05,23,09,18,13.40
2011,05,23,09,19,13.50
2011,05,23,09,20,13.60
2011,05,23,09,21,13.60
2011,05,23,09,22,13.70
2011,05,23,09,23,13.70
2011,05,23,09,24,13.70
2011,05,23,09,25,13.80
2011,05,23,09,26,13.90
2011,05,23,09,27,13.90
2011,05,23,09,28,14.00
2011,05,23,09,29,14.10
2011,05,23,09,30,14.10
2011,05,23,09,31,14.10
2011,05,23,09,32,14.20
2011,05,23,09,33,14.20
2011,05,23,09,34,14.20
2011,05,23,09,35,14.10
2011,05,23,09,36,14.00
2011,05,23,09,37,14.00
2011,05,23,09,38,14.00
2011,05,23,09,39,13.90
2011,05,23,09,40,13.90
2011,05,23,09,41,13.80
2011,05,23,09,42,13.90
2011,05,23,09,43,14.00
2011,05,23,09,44,14.10
2011,05,23,09,45,14.00
2011,05,23,09,46,13.90
2011,05,23,09,47,14.00
2011,05,23,09,48,14.00
2011,05,23,09,49,14.10
2011,05,23,09,50,14.20
2011,05,23,09,51,14.20
2011,05,23,09,52,14.10
2011,05,23,09,53,14.00
2011,05,23,09,54,14.00
2011,05,23,09,55,13.90
2011,05,23,09,56,13.90
2011,05,23,09,57,13.90
2011,05,23,09,58,13.90
2011,05,23,09,59,14.10
2011,05,23,10,00,14.20
2011,05,23,10,01,14.30
2011,05,23,10,02,14.40
2011,05,23,10,03,14.50
2011,05,23,10,04,14.60
2011,05,23,10,05,14.60
2011,05,23,10,06,14.60
2011,05,23,10,07,14.60
2011,05,23,10,08,14.50
2011,05,23,10,09,14.40
2011,05,23,10,10,14.20
2011,05,23,10,11,14.00
2011,05,23,10,12,14.00
2011,05,23,10,13,13.90
2011,05,23,10,14,13.90
2011,05,23,10,15,13.80
2011,05,23,10,16,13.80
2011,05,23,10,17,13.80
2011,05,23,10,18,13.90
2011,05,23,10,19,13.90
2011,05,23,10,20,14.00
2011,05,23,10,21,14.10
2011,05,23,10,22,14.20
2011,05,23,10,23,14.20
2011,05,23,10,24,14.30
2011,05,23,10,25,14.40
2011,05,23,10,26,14.40
2011,05,23,10,27,14.20
2011,05,23,10,28,14.10
2011,05,23,10,29,13.90
2011,05,23,10,30,13.90
2011,05,23,10,31,13.80
2011,05,23,10,32,13.70
2011,05,23,10,33,13.70
2011,05,23,10,34,13.80
2011,05,23,10,35,13.90
2011,05,23,10,36,13.90
2011,05,23,10,37,13.90
2011,05,23,10,38,13.90
2011,05,23,10,39,13.90
2011,05,23,10,40,14.00
2011,05,23,10,41,14.00
2011,05,23,10,42,14.10
2011,05,23,10,43,14.20
2011,05,23,10,44,14.20
2011,05,23,10,45,14.20
2011,05,23,10,46,14.20
2011,05,23,10,47,14.20
2011,05,23,10,48,14.10
2011,05,23,10,49,13.90
2011,05,23,10,50,13.90
2011,05,23,10,51,13.90
2011,05,23,10,52,14.00
2011,05,23,10,53,14.10
2011,05,23,10,54,14.20
2011,05,23,10,55,14.20
2011,05,23,10,56,14.20
2011,05,23,10,57,14.20
2011,05,23,10,58,14.30
2011,05,23,10,59,14.20
2011,05,23,11,00,14.10
2011,05,23,11,01,14.10
2011,05,23,11,02,14.10
2011,05,23,11,03,14.10
2011,05,23,11,04,14.10
2011,05,23,11,05,14.10
2011,05,23,11,06,14.10
2011,05,23,11,07,14.10
2011,05,23,11,08,14.20
2011,05,23,11,09,14.20
2011,05,23,11,10,14.20
2011,05,23,11,11,14.20
2011,05,23,11,12,14.20
2011,05,23,11,13,14.10
2011,05,23,11,14,14.10
2011,05,23,11,15,14.10
2011,05,23,11,16,14.10
2011,05,23,11,17,14.00
2011,05,23,11,18,14.00
2011,05,23,11,19,14.00
2011,05,23,11,20,14.00
2011,05,23,11,21,13.90
2011,05,23,11,22,13.60
2011,05,23,11,23,13.50
2011,05,23,11,24,13.40
2011,05,23,11,25,13.50
2011,05,23,11,26,13.60
2011,05,23,11,27,13.70
2011,05,23,11,28,13.70
2011,05,23,11,29,13.70
2011,05,23,11,30,13.70
2011,05,23,11,31,13.60
2011,05,23,11,32,13.60
2011,05,23,11,33,13.60
2011,05,23,11,34,13.70
2011,05,23,11,35,13.90
2011,05,23,11,36,14.00
2011,05,23,11,37,14.20
2011,05,23,11,38,14.40
2011,05,23,11,39,14.50
2011,05,23,11,40,14.60
2011,05,23,11,41,14.60
2011,05,23,11,42,14.40
2011,05,23,11,43,14.10
2011,05,23,11,44,13.90
2011,05,23,11,45,13.70
2011,05,23,11,46,13.50
2011,05,23,11,47,13.50
2011,05,23,11,48,13.50
2011,05,23,11,49,13.50
2011,05,23,11,50,13.60
2011,05,23,11,51,13.50
2011,05,23,11,52,13.40
2011,05,23,11,53,13.30
2011,05,23,11,54,13.30
2011,05,23,11,55,13.30
2011,05,23,11,56,13.40
2011,05,23,11,57,13.50
2011,05,23,11,58,13.50
2011,05,23,11,59,13.50
2011,05,23,12,00,13.60
2011,05,23,12,01,13.70
2011,05,23,12,02,13.80
2011,05,23,12,03,13.90
2011,05,23,12,04,14.10
2011,05,23,12,05,14.20
2011,05,23,12,06,14.10
2011,05,23,12,07,14.00
2011,05,23,12,08,14.00
2011,05,23,12,09,14.00
2011,05,23,12,10,14.00
2011,05,23,12,11,14.20
2011,05,23,12,12,14.20
2011,05,23,12,13,14.20
2011,05,23,12,14,14.20
2011,05,23,12,15,14.10
2011,05,23,12,16,14.20
2011,05,23,12,17,14.20
2011,05,23,12,18,14.10
2011,05,23,12,19,14.10
2011,05,23,12,20,14.10
2011,05,23,12,21,14.20
2011,05,23,12,22,14.20
2011,05,23,12,23,14.20
2011,05,23,12,24,14.30
2011,05,23,12,25,14.40
2011,05,23,12,26,14.50
2011,05,23,12,27,14.60
2011,05,23,12,28,14.70
2011,05,23,12,29,14.50
2011,05,23,12,30,14.30
2011,05,23,12,31,14.20
2011,05,23,12,32,14.00
2011,05,23,12,33,13.90
2011,05,23,12,34,13.80
2011,05,23,12,35,13.90
2011,05,23,12,36,13.90
2011,05,23,12,37,13.80
2011,05,23,12,38,13.70
2011,05,23,12,39,13.60
2011,05,23,12,40,13.60
2011,05,23,12,41,13.60
2011,05,23,12,42,13.60
2011,05,23,12,43,13.60
2011,05,23,12,44,13.70
2011,05,23,12,45,13.90
2011,05,23,12,46,13.90
2011,05,23,12,47,13.90
2011,05,23,12,48,14.00
2011,05,23,12,49,14.20
2011,05,23,12,50,14.40
2011,05,23,12,51,14.60
2011,05,23,12,52,14.60
2011,05,23,12,53,14.30
2011,05,23,12,54,14.10
2011,05,23,12,55,14.00
2011,05,23,12,56,14.00
2011,05,23,12,57,14.00
2011,05,23,12,58,14.00
2011,05,23,12,59,14.00
2011,05,23,13,00,14.10
2011,05,23,13,01,14.30
2011,05,23,13,02,14.40
2011,05,23,13,03,14.60
2011,05,23,13,04,14.90
2011,05,23,13,05,15.00
2011,05,23,13,06,15.00
2011,05,23,13,07,14.90
2011,05,23,13,08,14.90
2011,05,23,13,09,14.90
2011,05,23,13,10,14.90
2011,05,23,13,11,15.00
2011,05,23,13,12,15.20
2011,05,23,13,13,15.30
2011,05,23,13,14,15.30
2011,05,23,13,15,15.40
2011,05,23,13,16,15.40
2011,05,23,13,17,15.40
2011,05,23,13,18,15.50
2011,05,23,13,19,15.60
2011,05,23,13,20,15.70
2011,05,23,13,21,15.60
2011,05,23,13,22,15.30
2011,05,23,13,23,15.10
2011,05,23,13,24,15.00
2011,05,23,13,25,14.80
2011,05,23,13,26,14.70
2011,05,23,13,27,14.70
2011,05,23,13,28,14.80
2011,05,23,13,29,14.80
2011,05,23,13,30,14.80
2011,05,23,13,31,14.80
2011,05,23,13,32,14.80
2011,05,23,13,33,14.80
2011,05,23,13,34,14.80
2011,05,23,13,35,14.80
2011,05,23,13,36,14.80
2011,05,23,13,37,14.80
2011,05,23,13,38,14.80
2011,05,23,13,39,14.90
2011,05,23,13,40,15.00
2011,05,23,13,41,15.00
2011,05,23,13,42,15.20
2011,05,23,13,43,15.20
2011,05,23,13,44,15.20
2011,05,23,13,45,15.20
2011,05,23,13,46,15.30
2011,05,23,13,47,15.50
2011,05,23,13,48,15.50
2011,05,23,13,49,15.60
2011,05,23,13,50,15.60
2011,05,23,13,51,15.60
2011,05,23,13,52,15.60
2011,05,23,13,53,15.70
2011,05,23,13,54,15.70
2011,05,23,13,55,15.80
2011,05,23,13,56,15.80
2011,05,23,13,57,15.70
2011,05,23,13,58,15.70
2011,05,23,13,59,15.60
2011,05,23,14,00,15.50
2011,05,23,14,01,15.40
2011,05,23,14,02,15.40
2011,05,23,14,03,15.30
2011,05,23,14,04,15.20
2011,05,23,14,05,15.10
2011,05,23,14,06,15.20
2011,05,23,14,07,15.20
2011,05,23,14,08,15.30
2011,05,23,14,09,15.30
2011,05,23,14,10,15.30
2011,05,23,14,11,15.30
2011,05,23,14,12,15.10
2011,05,23,14,13,15.00
2011,05,23,14,14,14.80
2011,05,23,14,15,14.80
2011,05,23,14,16,14.90
2011,05,23,14,17,15.00
2011,05,23,14,18,15.20
2011,05,23,14,19,15.40
2011,05,23,14,20,15.60
2011,05,23,14,21,15.80
2011,05,23,14,22,15.90
2011,05,23,14,23,15.90
2011,05,23,14,24,15.80
2011,05,23,14,25,15.80
2011,05,23,14,26,15.50
2011,05,23,14,27,15.20
2011,05,23,14,28,15.20
2011,05,23,14,29,15.10
2011,05,23,14,30,15.10
2011,05,23,14,31,15.10
2011,05,23,14,32,15.10
2011,05,23,14,33,15.20
2011,05,23,14,34,15.30
2011,05,23,14,35,15.20
2011,05,23,14,36,15.20
2011,05,23,14,37,15.10
2011,05,23,14,38,14.90
2011,05,23,14,39,14.70
2011,05,23,14,40,14.70
2011,05,23,14,41,14.60
2011,05,23,14,42,14.70
2011,05,23,14,43,14.60
2011,05,23,14,44,14.70
2011,05,23,14,45,14.80
2011,05,23,14,46,14.70
2011,05,23,14,47,14.50
2011,05,23,14,48,14.30
2011,05,23,14,49,14.20
2011,05,23,14,50,14.40
2011,05,23,14,51,14.40
2011,05,23,14,52,14.60
2011,05,23,14,53,14.70
2011,05,23,14,54,14.90
2011,05,23,14,55,15.00
2011,05,23,14,56,15.00
2011,05,23,14,57,14.90
2011,05,23,14,58,14.90
2011,05,23,14,59,14.80
2011,05,23,15,00,14.80
2011,05,23,15,01,14.90
2011,05,23,15,02,14.90
2011,05,23,15,03,14.90
2011,05,23,15,04,14.90
2011,05,23,15,05,14.90
2011,05,23,15,06,14.90
2011,05,23,15,07,15.00
2011,05,23,15,08,15.00
2011,05,23,15,09,15.00
2011,05,23,15,10,15.00
2011,05,23,15,11,15.00
2011,05,23,15,12,14.90
2011,05,23,15,13,14.80
2011,05,23,15,14,14.80
2011,05,23,15,15,14.80
2011,05,23,15,16,14.80
2011,05,23,15,17,14.70
2011,05,23,15,18,14.60
2011,05,23,15,19,14.50
2011,05,23,15,20,14.40
2011,05,23,15,21,14.30
2011,05,23,15,22,14.10
2011,05,23,15,23,14.00
2011,05,23,15,24,14.10
2011,05,23,15,25,14.30
2011,05,23,15,26,14.50
2011,05,23,15,27,14.50
2011,05,23,15,28,14.40
2011,05,23,15,29,14.40
2011,05,23,15,30,14.40
2011,05,23,15,31,14.20
2011,05,23,15,32,14.30
2011,05,23,15,33,14.40
2011,05,23,15,34,14.30
2011,05,23,15,35,14.40
2011,05,23,15,36,14.50
2011,05,23,15,37,14.50
2011,05,23,15,38,14.60
2011,05,23,15,39,14.60
2011,05,23,15,40,14.50
2011,05,23,15,41,14.50
2011,05,23,15,42,14.50
2011,05,23,15,43,14.50
2011,05,23,15,44,14.50
2011,05,23,15,45,14.40
2011,05,23,15,46,14.40
2011,05,23,15,47,14.40
2011,05,23,15,48,14.30
2011,05,23,15,49,14.20
2011,05,23,15,50,14.00
2011,05,23,15,51,14.00
2011,05,23,15,52,14.00
2011,05,23,15,53,13.90
2011,05,23,15,54,14.00
2011,05,23,15,55,14.10
2011,05,23,15,56,14.20
2011,05,23,15,57,14.20
2011,05,23,15,58,14.20
2011,05,23,15,59,14.20
2011,05,23,16,00,14.10
2011,05,23,16,01,13.90
2011,05,23,16,02,13.90
2011,05,23,16,03,14.00
2011,05,23,16,04,13.90
2011,05,23,16,05,13.90
2011,05,23,16,06,13.80
2011,05,23,16,07,13.80
2011,05,23,16,08,14.00
2011,05,23,16,09,14.20
2011,05,23,16,10,14.20
2011,05,23,16,11,14.40
2011,05,23,16,12,14.50
2011,05,23,16,13,14.60
2011,05,23,16,14,14.70
2011,05,23,16,15,14.70
2011,05,23,16,16,14.60
2011,05,23,16,17,14.50
2011,05,23,16,18,14.30
2011,05,23,16,19,14.30
2011,05,23,16,20,14.30
2011,05,23,16,21,14.20
2011,05,23,16,22,14.00
2011,05,23,16,23,14.00
2011,05,23,16,24,13.80
2011,05,23,16,25,13.80
2011,05,23,16,26,13.90
2011,05,23,16,27,14.00
2011,05,23,16,28,14.10
2011,05,23,16,29,14.20
2011,05,23,16,30,14.20
2011,05,23,16,31,14.20
2011,05,23,16,32,14.40
2011,05,23,16,33,14.50
2011,05,23,16,34,14.60
2011,05,23,16,35,14.70
2011,05,23,16,36,14.60
2011,05,23,16,37,14.50
2011,05,23,16,38,14.40
2011,05,23,16,39,14.40
2011,05,23,16,40,14.50
2011,05,23,16,41,14.50
2011,05,23,16,42,14.60
2011,05,23,16,43,14.50
2011,05,23,16,44,14.40
2011,05,23,16,45,14.30
2011,05,23,16,46,14.20
2011,05,23,16,47,14.10
2011,05,23,16,48,14.20
2011,05,23,16,49,14.20
2011,05,23,16,50,14.20
2011,05,23,16,51,14.30
2011,05,23,16,52,14.50
2011,05,23,16,53,14.60
2011,05,23,16,54,14.50
2011,05,23,16,55,14.50
2011,05,23,16,56,14.40
2011,05,23,16,57,14.40
2011,05,23,16,58,14.40
2011,05,23,16,59,14.20
2011,05,23,17,00,14.10
2011,05,23,17,01,14.10
2011,05,23,17,02,14.10
2011,05,23,17,03,14.20
2011,05,23,17,04,14.40
2011,05,23,17,05,14.50
2011,05,23,17,06,14.50
2011,05,23,17,07,14.40
2011,05,23,17,08,14.50
2011,05,23,17,09,14.60
2011,05,23,17,10,14.60
2011,05,23,17,11,14.60
2011,05,23,17,12,14.60
2011,05,23,17,13,14.60
2011,05,23,17,14,14.50
2011,05,23,17,15,14.60
2011,05,23,17,16,14.70
2011,05,23,17,17,14.80
2011,05,23,17,18,14.80
2011,05,23,17,19,14.90
2011,05,23,17,20,14.90
2011,05,23,17,21,14.90
2011,05,23,17,22,14.80
2011,05,23,17,23,14.80
2011,05,23,17,24,14.70
2011,05,23,17,25,14.60
2011,05,23,17,26,14.50
2011,05,23,17,27,14.50
2011,05,23,17,28,14.40
2011,05,23,17,29,14.30
2011,05,23,17,30,14.20
2011,05,23,17,31,14.20
2011,05,23,17,32,14.20
2011,05,23,17,33,14.20
2011,05,23,17,34,14.20
2011,05,23,17,35,14.20
2011,05,23,17,36,14.20
2011,05,23,17,37,14.20
2011,05,23,17,38,14.10
2011,05,23,17,39,14.20